Temperature
13 13 13 13 13 13 13 13 13 12 12 13 13 13 13 12 12 12 12 12 12 12 12 12 12 12 12 12 12 12 12 12 12 12 12 11 11 11
13 13 13 13 13 13 13 13 13 12 12 12 12 12 12 12 12 12 12 12 12 12 12 12 12 12 12 12 12 12 12 11 11 11 11 11 11 11
12 12 12 12 12 12 12 12 12 12 12 12 12 12 12 12 12 12 12 12 12 12 12 12 12 11 11 11 11 11 11 11 11 11 11 11 11 11
12 12 12 12 12 12 12 12 12 12 12 12 12 12 12 12 12 11 11 11 11 11 12 12 12 11 11 11 11 11 11 11 11 11 11 11 11 11
12 12 12 12 12 12 12 12 12 12 12 11 11 11 11 11 11 11 11 11 11 11 11 11 11 11 11 11 11 11 11 11 11 11 11 11 11 11
11 11 11 11 11 11 11 11 11 11 11 11 11 11 11 11 11 11 11 11 11 11 11 11 11 11 11 11 11 11 11 11 11 11 11 11 11 11
11 11 11 11 11 11 11 11 11 11 11 11 11 11 10 10 10 10 10 10 10 10 10 10 11 11 11 11 11 11 11 11 11 11 11 11 11 11
11 11 11 11 11 11 11 10 10 10 10 10 10 10 10 10 10 10 10 10 10 10 10 10 10 10 11 11 11 11 11 10 10 10 10 10 10 10
10 10 10 10 10 10 10 10 10 10 10 10 10 10 10 10 10 10 10 10 10 10 10 10 10 10 10 10 10 10 10 10 10 10 10 10 10 10
10 10 10 10 10 10 10 10 10 10 10 10 10 10 10 10 10 10 10 10 9 9 9 9 10 10 10 10 10 10 10 10 10 10 10 10 10 10
9 9 9 10 10 10 10 9 9 9 10 9 9 9 9 9 10 9 9 9 9 9 9 9 9 9 9 9 10 10 10 10 10 10 10 10 10 10
9 9 9 9 9 9 9 9 9 9 9 9 9 9 9 9 9 9 9 9 9 9 9 9 9 9 9 9 9 9 9 9 10 9 9 9 9 9
8 8 8 9 8 8 8 8 8 8 8 8 9 9 9 9 9 9 9 9 9 9 9 9 9 9 9 9 9 9 9 9 9 9 9 9 9 9
8 8 8 8 8 8 8 8 8 8 8 8 8 8 8 8 8 8 8 8 8 8 8 8 8 8 8 8 8 9 9 9 9 9 9 9 9 9
7 7 7 7 7 7 7 7 7 7 7 7 7 7 8 8 8 8 8 8 8 8 8 8 8 8 8 8 8 8 8 8 8 8 9 9 9 9
7 7 7 7 7 7 7 7 7 7 7 7 7 7 7 7 7 7 7 7 7 7 7 7 7 7 7 7 7 7 8 8 8 8 8 8 8 8
6 6 6 6 6 6 6 6 6 6 6 6 6 6 6 6 6 6 7 7 7 7 7 7 7 7 7 7 7 7 7 7 8 8 8 8 8 8
6 5 5 5 5 5 6 6 5 5 5 5 5 6 6 6 6 6 6 6 6 6 6 6 6 6 6 6 6 7 7 7 7 7 7 7 7 8
5 5 5 5 5 5 5 5 5 5 4 4 5 5 5 5 5 5 5 5 5 5 5 6 5 5 5 5 6 6 6 6 6 6 6 7 7 7
5 5 4 4 4 4 4 4 4 4 4 4 4 4 4 4 4 4 4 4 5 5 5 5 5 5 5 5 5 6 6 6 6 6 6 6 6 6
4 4 4 4 4 4 4 4 4 4 3 4 3 4 4 4 4 4 4 4 4 4 4 4 4 4 4 4 4 5 5 5 5 5 5 5 5 5
4 3 3 3 3 3 3 3 3 3 3 3 3 3 3 3 3 3 3 3 3 3 4 4 4 4 4 4 4 4 4 5 5 5 5 5 5 5
3 3 3 3 3 3 3 3 3 3 2 3 3 3 3 3 3 3 3 3 3 3 3 3 3 3 3 3 3 3 4 4 4 4 4 4 4 4
Wind_Speed
1 2 1 1 1 1 1 2 2 1 1 2 0 1 3 5 6 6 4 5 5 5 4 3 3 3 3 3 3 3 3 3 3 4 4 5 5 5
2 2 2 1 1 1 1 1 2 2 1 1 0 1 2 3 5 4 5 6 5 5 5 4 4 4 4 3 3 3 3 3 2 3 3 3 3 4
1 1 1 1 1 1 1 1 1 2 1 2 0 1 2 2 2 2 4 5 4 4 5 5 6 5 4 5 4 4 4 3 3 2 2 1 1 2
2 1 1 1 1 1 1 1 1 1 2 1 1 0 1 2 2 2 3 3 4 5 5 5 7 7 6 6 6 5 5 4 4 3 3 2 1 1
1 2 2 1 1 1 1 1 1 1 1 2 1 1 1 1 1 1 1 1 2 3 5 5 7 7 7 7 7 7 6 6 5 5 5 4 3 3
1 2 2 2 2 2 1 1 1 1 1 1 2 1 1 1 1 1 0 1 1 1 2 3 5 7 7 7 7 7 7 7 7 6 6 6 5 5
2 2 1 1 1 1 1 1 1 2 2 2 2 1 1 1 1 1 1 1 2 1 1 2 3 3 5 7 8 9 9 9 8 8 7 7 7 7
1 2 2 2 2 2 3 3 2 2 3 2 2 3 3 3 2 2 2 1 2 2 2 2 3 3 4 6 8 10 11 10 9 9 8 8 8 8
2 1 2 2 2 2 3 4 3 4 4 4 4 4 4 4 3 3 3 2 3 3 2 2 2 3 5 7 10 12 12 11 10 10 9 9 9 9
2 2 2 2 1 0 1 2 3 4 5 4 4 5 4 4 4 5 5 4 3 2 1 2 3 3 3 5 9 12 12 12 11 11 10 10 10 10
2 1 1 1 1 1 0 2 3 4 5 6 6 5 5 4 3 2 2 2 2 3 2 2 2 2 2 3 6 10 11 12 12 11 11 11 11 10
2 1 1 1 1 1 1 2 3 4 3 3 3 4 3 3 3 3 3 3 3 2 2 2 2 1 2 2 3 5 7 9 11 12 11 11 10 8
2 2 2 1 1 2 2 2 4 4 3 3 3 3 3 3 3 3 4 4 4 3 3 2 2 2 2 2 2 3 4 4 6 8 10 11 11 9
2 2 2 2 2 3 3 4 5 3 2 2 2 3 3 4 4 4 5 5 5 4 3 3 2 3 2 2 3 2 3 4 4 4 6 8 10 11
2 3 3 3 3 3 4 4 3 2 2 3 3 3 3 3 2 2 3 3 3 4 4 4 2 2 3 3 3 2 2 3 4 4 4 5 5 5
2 3 4 5 4 4 3 3 2 2 3 3 3 3 2 2 2 2 2 2 3 4 4 4 4 4 3 3 3 3 3 3 3 4 4 4 4 6
1 1 2 2 2 2 2 1 1 1 3 3 2 2 2 2 3 2 2 2 3 3 3 3 3 3 3 4 3 3 3 2 2 3 3 4 4 6
1 1 2 2 2 2 2 1 1 2 2 2 2 2 3 3 3 2 1 2 3 3 3 2 1 1 2 2 3 3 3 3 2 3 3 4 5 5
1 2 2 2 2 2 2 2 2 2 2 2 2 2 2 2 2 2 2 2 2 3 3 2 2 2 3 5 4 4 4 3 3 3 3 4 4 4
2 3 3 3 2 2 1 2 2 2 2 2 2 2 2 2 2 2 2 2 2 2 2 2 3 4 6 6 4 4 6 4 4 4 4 3 3 3
2 2 2 2 2 1 1 2 2 2 2 2 2 2 2 3 3 2 2 3 3 2 3 4 5 5 4 2 3 4 3 6 5 3 3 3 2 2
2 2 2 1 1 1 2 2 2 2 2 2 2 2 2 2 3 3 3 3 3 3 4 3 3 2 2 4 5 5 4 3 4 5 4 4 3 4
2 2 2 1 1 1 2 2 3 3 2 2 2 2 3 3 2 2 3 3 3 3 3 3 2 2 3 4 5 4 4 3 2 2 3 7 7 7
Wind_Direction
247 254 241 254 263 230 152 140 140 187 273 256 229 180 133 131 149 149 149 156 159 154 154 152 152 152 140 126 124 121 110 98 87 83 72 62 57 58
228 234 239 233 232 202 218 194 150 166 230 260 245 177 139 132 148 156 154 163 168 173 181 181 178 168 160 154 157 145 135 125 120 113 94 71 60 59
244 227 242 237 198 204 204 185 185 146 181 278 281 122 124 117 114 154 149 154 169 187 195 197 194 188 185 182 183 179 175 171 166 164 163 136 87 67
234 239 253 210 157 196 187 201 214 193 174 218 259 137 153 168 152 160 159 169 175 200 210 209 199 194 196 195 194 194 194 195 194 197 199 208 221 232
239 236 230 187 200 206 181 205 225 211 168 166 224 216 190 178 144 168 171 174 207 203 206 202 192 192 198 198 201 205 204 202 205 208 210 218 233 246
249 245 211 198 199 188 187 206 211 198 200 185 201 206 198 221 152 168 263 272 276 237 192 186 188 198 206 204 207 210 211 214 216 217 220 226 235 242
236 225 212 143 121 176 187 197 210 206 208 205 205 195 208 190 197 203 216 254 264 256 172 183 170 182 206 215 219 219 218 219 220 220 224 229 233 238
279 237 216 186 200 195 196 189 187 205 214 212 209 211 220 214 207 209 196 219 266 263 193 226 164 191 204 212 218 217 216 217 219 222 226 230 233 237
292 299 287 265 205 207 224 220 220 232 224 213 218 226 220 212 200 210 218 219 233 244 203 233 214 217 216 225 220 217 213 214 218 222 227 231 233 236
309 309 292 293 308 348 262 239 237 235 232 221 226 234 230 219 207 211 219 223 233 246 196 225 230 233 224 222 224 216 215 216 219 221 226 231 233 235
304 320 310 277 326 22 324 272 273 270 253 233 227 239 252 245 226 194 219 215 242 252 230 216 241 244 242 223 227 221 218 219 219 222 228 232 234 235
298 290 303 325 3 9 248 252 263 268 289 276 254 253 251 250 238 200 202 216 225 241 238 210 236 225 263 254 213 218 221 224 224 225 228 231 231 223
309 306 305 299 285 303 295 256 260 272 268 260 254 241 239 235 231 224 210 207 215 233 232 198 228 230 224 262 264 218 204 214 221 228 229 228 223 212
283 296 295 298 290 288 282 282 288 297 282 268 263 248 241 241 235 229 228 225 219 219 223 193 206 219 227 253 266 255 227 216 210 215 222 227 225 225
273 298 301 299 293 274 271 278 279 269 264 261 258 250 244 251 250 247 238 237 241 247 244 220 200 214 207 224 244 247 254 241 214 210 212 212 214 215
296 301 302 294 287 281 281 277 263 255 244 249 256 255 262 264 256 248 245 244 252 263 259 240 221 205 221 230 230 250 242 230 227 220 213 219 223 220
315 301 300 300 299 288 289 278 266 283 276 269 261 264 263 264 263 258 237 236 235 251 262 264 241 229 217 215 231 242 239 247 235 220 216 227 234 229
295 261 271 273 267 272 278 284 282 277 277 275 270 272 273 273 276 280 282 238 237 244 245 248 267 316 320 289 227 232 235 236 244 235 228 230 246 241
257 250 260 272 274 271 272 271 275 285 290 283 275 276 283 288 291 287 282 268 255 250 251 241 218 205 241 264 273 241 241 247 234 235 233 230 242 245
221 236 248 257 264 270 281 288 288 298 304 290 278 276 273 276 278 276 265 263 261 261 258 252 235 222 228 240 253 271 251 234 227 235 240 242 252 262
246 244 248 254 264 273 281 283 280 279 285 280 274 273 266 262 263 260 255 267 267 262 259 250 245 246 239 234 258 269 269 250 244 238 231 236 253 252
262 258 252 261 269 267 271 282 282 280 279 275 277 278 281 267 253 251 252 256 259 260 263 272 272 254 231 235 250 261 273 281 277 291 271 243 218 220
271 263 256 254 266 274 276 275 275 279 283 288 296 292 283 277 275 262 253 251 257 266 276 286 291 271 257 249 250 257 262 267 270 280 289 289 272 260
Height
1524 1524 1525 1525 1526 1527 1527 1528 1529 1529 1529 1529 1529 1529 1529 1529 1529 1529 1529 1529 1529 1529 1529 1529 1530 1530 1530 1531 1531 1531 1532 1532 1532 1533 1533 1533 1533 1533
1521 1522 1522 1523 1524 1524 1525 1526 1526 1527 1527 1528 1528 1527 1527 1527 1527 1527 1527 1527 1527 1527 1527 1527 1528 1528 1529 1529 1530 1530 1531 1531 1531 1532 1532 1533 1533 1533
1519 1519 1520 1520 1521 1522 1522 1523 1524 1524 1524 1525 1526 1525 1525 1525 1525 1525 1525 1525 1525 1525 1525 1525 1525 1526 1526 1527 1528 1528 1529 1530 1530 1531 1531 1531 1532 1532
1516 1516 1517 1518 1518 1519 1519 1520 1521 1522 1522 1522 1523 1523 1523 1523 1523 1524 1524 1523 1523 1523 1522 1521 1520 1522 1524 1525 1526 1526 1527 1528 1528 1529 1529 1530 1530 1530
1513 1514 1514 1515 1515 1516 1517 1517 1518 1519 1519 1520 1520 1521 1521 1521 1521 1521 1521 1521 1521 1521 1520 1518 1517 1519 1521 1522 1523 1524 1525 1526 1526 1527 1527 1528 1528 1529
1510 1511 1511 1512 1512 1513 1513 1514 1515 1516 1516 1517 1517 1518 1518 1518 1519 1519 1519 1519 1519 1519 1518 1518 1517 1518 1520 1521 1522 1522 1523 1524 1524 1525 1525 1526 1526 1526
1507 1508 1509 1509 1510 1510 1511 1511 1512 1512 1513 1513 1514 1514 1515 1515 1515 1516 1516 1516 1517 1517 1517 1516 1517 1517 1518 1519 1520 1520 1521 1521 1522 1522 1523 1523 1523 1524
1504 1505 1505 1506 1507 1508 1508 1508 1509 1510 1510 1510 1510 1511 1511 1512 1512 1513 1513 1514 1514 1515 1514 1514 1515 1515 1516 1517 1517 1518 1518 1519 1519 1519 1520 1520 1521 1521
1501 1502 1502 1503 1504 1504 1505 1505 1506 1507 1507 1508 1507 1508 1508 1509 1509 1510 1510 1510 1511 1512 1512 1511 1512 1512 1513 1514 1514 1515 1515 1516 1516 1516 1517 1517 1518 1518
1498 1499 1499 1500 1500 1501 1501 1501 1502 1503 1503 1504 1504 1504 1505 1506 1506 1506 1507 1507 1508 1509 1509 1509 1509 1509 1510 1510 1511 1511 1512 1512 1513 1513 1513 1514 1514 1515
1495 1495 1495 1496 1496 1497 1497 1497 1498 1498 1499 1500 1500 1501 1501 1502 1502 1503 1503 1504 1503 1504 1506 1506 1506 1506 1506 1506 1507 1508 1508 1509 1509 1509 1510 1510 1510 1511
1492 1492 1492 1492 1492 1493 1493 1493 1493 1494 1494 1495 1496 1496 1496 1497 1498 1499 1499 1500 1500 1500 1501 1502 1502 1503 1503 1503 1503 1504 1504 1505 1505 1505 1506 1506 1507 1507
1488 1489 1489 1489 1489 1489 1489 1489 1489 1490 1490 1491 1491 1491 1492 1492 1493 1494 1495 1496 1496 1496 1498 1498 1498 1499 1499 1499 1499 1500 1500 1501 1501 1501 1501 1502 1502 1502
1485 1486 1486 1486 1486 1486 1486 1485 1485 1486 1486 1486 1486 1487 1487 1488 1488 1490 1490 1491 1492 1493 1494 1494 1494 1495 1495 1494 1495 1495 1496 1496 1496 1497 1497 1497 1498 1498
1482 1483 1483 1483 1482 1482 1482 1482 1482 1482 1482 1482 1482 1482 1483 1484 1484 1485 1486 1487 1487 1488 1489 1489 1490 1490 1491 1490 1490 1491 1491 1491 1492 1492 1492 1492 1492 1493
1479 1479 1479 1479 1479 1479 1478 1478 1478 1478 1478 1478 1478 1479 1479 1480 1480 1481 1481 1481 1482 1482 1484 1485 1485 1486 1485 1486 1486 1486 1486 1486 1487 1487 1487 1487 1488 1488
1476 1476 1476 1475 1475 1475 1475 1475 1475 1474 1474 1474 1474 1474 1475 1475 1475 1476 1476 1477 1477 1477 1478 1479 1480 1480 1481 1481 1481 1481 1481 1481 1482 1482 1482 1482 1482 1483
1473 1472 1472 1472 1472 1472 1472 1471 1471 1471 1471 1470 1470 1470 1470 1470 1471 1471 1472 1472 1472 1472 1473 1474 1474 1475 1475 1475 1476 1476 1476 1476 1476 1477 1477 1477 1476 1477
1470 1469 1469 1469 1469 1469 1469 1468 1468 1468 1467 1467 1466 1466 1466 1466 1466 1466 1467 1467 1467 1468 1468 1469 1470 1470 1469 1469 1469 1471 1471 1471 1471 1471 1471 1471 1471 1471
1466 1466 1466 1466 1466 1466 1465 1465 1465 1464 1464 1463 1463 1462 1462 1462 1462 1462 1462 1462 1463 1463 1464 1464 1465 1465 1465 1465 1465 1466 1467 1466 1466 1466 1466 1466 1466 1467
1463 1463 1463 1463 1462 1462 1462 1462 1461 1461 1460 1460 1459 1459 1458 1458 1458 1458 1458 1458 1459 1459 1459 1459 1459 1461 1461 1462 1461 1460 1461 1461 1461 1461 1461 1461 1460 1460
1459 1459 1459 1459 1459 1458 1458 1458 1457 1457 1457 1456 1456 1455 1455 1454 1454 1454 1454 1454 1454 1454 1454 1455 1455 1456 1456 1456 1455 1455 1455 1456 1456 1456 1456 1456 1455 1454
1456 1456 1455 1455 1455 1455 1454 1454 1453 1453 1453 1452 1452 1451 1451 1451 1450 1450 1450 1451 1451 1451 1450 1450 1451 1451 1450 1451 1451 1450 1450 1450 1450 1450 1450 1450 1451 1451